Location: Newark
(7.0858°N, 171.3717°E)
Time: 17:04:55
(UTC+00:00)

Altair - Pass Details

Date: 03 December 2020
Orbit: 1501 x 1682 km, 47.2° (Epoch: 20 January)

Event Time Altitude Azimuth Distance (km) Brightness Sun altitude
Rises 06:32:06 0° 244° (WSW) 4,857 13.1 -4.4°
Reaches altitude 10° 06:35:43 10° 253° (WSW) 3,844 11.5 -5.3°
Maximum altitude 06:44:09 33° 314° (NW) 2,422 8.8 -7.2°
Drops below altitude 10° 06:52:21 10° 15° (NNE) 3,715 9.2 -9.1°
Sets 06:55:49 0° 25° (NNE) 4,675 9.6 -9.9°
